Regional Weather Roundup
Issued by NWS Sioux Falls, SD

Home | Current Version | Previous Version | Graphics & Text | Print | Product List | Glossary On
Versions: 1 2 3 4 5 6 7 8 9 10 11 12 13 14 15 16 17 18 19 20 21 22 23 24 25 26 27 28 29 30 31 32 33 34 35 36 37 38 39 40 41 42 43 44 45 46 47 48 49 50
000
ASUS43 KFSD 051010
RWRFSD

WEATHER ROUNDUP FOR SE SOUTH DAKOTA/SW MINNESOTA/NW IOWA
NATIONAL WEATHER SERVICE SIOUX FALLS SD
500 AM CDT TUE MAY 05 2015

NOTE: "FAIR" INDICATES FEW OR NO CLOUDS BELOW 12,000 FEET WITH NO
SIGNIFICANT WEATHER AND OR OBSTRUCTIONS TO VISIBILITY.


SDZ038>040-050-052>070-051100-
SOUTHEAST SOUTH DAKOTA

CITY           SKY/WX    TMP DP  RH WIND       PRES   REMARKS
BROOKINGS      PTCLDY    50  30  46 E9        30.15S
CHAMBERLAIN    MOCLDY    44  36  73 E3        30.09F
HURON          PTCLDY    47  30  51 SE6       30.13R
MADISON        FAIR      41  27  56 E8        30.14S
MITCHELL       PTCLDY    45  33  63 CALM      30.12S
SIOUX FALLS    CLOUDY    45  34  65 N5        30.12S
WINNER         CLOUDY    49  38  65 E7        30.07F
YANKTON        CLOUDY    55  39  54 NE9       30.08F
$$

MNZ071-072-080-081-089-090-097-098-051100-
SOUTHWEST MINNESOTA

CITY           SKY/WX    TMP DP  RH WIND       PRES   REMARKS
FAIRMONT       CLOUDY    55  32  41 N9        30.12F
JACKSON        CLOUDY    54  32  43 NE9       30.14S
LUVERNE        CLOUDY    50  34  53 NE5       30.13S
MARSHALL       PTCLDY    41  21  45 CALM      30.16S
MONTEVIDEO     CLEAR     43  27  52 SE7       30.18S
REDWOOD FALLS  CLEAR     51  25  36 NE7       30.16S
TRACY          PTCLDY    48  30  50 E3        30.16S
WORTHINGTON    CLOUDY    52  30  43 NE7       30.14S
$$

IAZ001>003-012>014-020>022-031-032-NEZ013-014-SDZ071-051100-
NORTHWEST IOWA

CITY           SKY/WX    TMP DP  RH WIND       PRES   REMARKS
CHEROKEE       CLOUDY    58  40  51 E7        30.09F
DENISON        CLOUDY    55  55 100 NE10      30.04S
ESTHERVILLE    MOCLDY    55  33  43 NE12      30.11F
LE MARS        CLOUDY    57  41  54 NE6G13    30.10S
ORANGE CITY    MOCLDY    55  37  50 E8        30.10S
SHELDON        CLOUDY    57  37  47 E9        30.09F
SIOUX CITY     CLOUDY    56  51  84 NE8       30.08F
SPENCER        CLOUDY    56  39  53 NE10      30.11F
STORM LAKE     DRIZZLE   52  50  93 NE14      30.10S
$$

ABBREVIATIONS USED IN REMARKS
   TC - TEMPERATURE IN CELSIUS
  WCI - WIND CHILL INDEX
   HX - HEAT INDEX
  VSB - VISIBILITY




USA.gov is the U.S. government's official web portal to all federal, state and local government web resources and services.